Location: Saratoga Springs
(43.0831°N, 73.7850°W)
Time: 06:41:27
(UTC-04:00)

Transit 4A - Visible Passes

Search period start: 17 April 2024 00:00
Search period end: 27 April 2024 00:00
Orbit: 871 x 972 km, 66.8° (Epoch: 16 April)

Date Brightness Start Highest point End Pass type
(mag) Time Alt. Az. Time Alt. Az. Time Alt. Az.
17 Apr 10.0 00:42:46 10° WNW 00:44:05 15° WNW 00:44:05 15° WNW visible
17 Apr 9.5 21:18:57 10° N 21:23:10 20° NE 21:26:00 14° ENE visible
17 Apr 7.9 23:04:24 10° NNW 23:09:30 69° NW 23:09:30 69° NW visible
18 Apr 9.1 21:27:41 10° NNW 21:32:33 26° NE 21:34:55 20° E visible
18 Apr 8.2 23:13:32 10° NW 23:18:25 55° WNW 23:18:25 55° WNW visible
19 Apr 8.7 21:36:29 10° NNW 21:41:51 36° NE 21:43:53 28° E visible
19 Apr 8.7 23:22:47 10° NW 23:27:23 38° W 23:27:23 38° W visible
20 Apr 8.2 21:45:23 10° NNW 21:51:04 50° NE 21:52:52 38° ESE visible
20 Apr 9.2 23:32:15 10° NW 23:36:22 27° W 23:36:22 27° W visible
21 Apr 7.8 21:54:21 10° NNW 22:00:11 72° ENE 22:01:54 47° SE visible
21 Apr 9.7 23:42:03 10° WNW 23:45:24 18° W 23:45:24 18° W visible
22 Apr 9.3 20:17:50 10° N 20:22:16 22° NE 20:26:42 10° E visible
22 Apr 7.7 22:03:24 10° NNW 22:09:15 79° WSW 22:10:58 48° SSE visible
22 Apr 10.1 23:52:52 10° W 23:54:28 11° W 23:54:28 11° W visible
23 Apr 8.9 20:26:35 10° NNW 20:31:37 29° NE 20:36:34 10° ESE visible
23 Apr 8.2 22:12:34 10° NW 22:18:13 54° WSW 22:20:05 38° SSW visible
24 Apr 8.5 20:35:25 10° NNW 20:40:53 40° NE 20:45:44 13° ESE visible
24 Apr 8.9 22:21:52 10° NW 22:27:08 36° WSW 22:29:14 28° SSW visible
25 Apr 8.0 20:44:19 10° NNW 20:50:04 56° NE 20:54:56 15° SE visible
25 Apr 9.5 22:31:24 10° NW 22:35:58 24° WSW 22:38:27 18° SW visible
26 Apr 7.8 20:53:19 10° NNW 20:59:10 81° ENE 21:04:12 15° SE visible
26 Apr 10.0 22:41:22 10° WNW 22:44:45 16° WSW 22:47:43 11° SW visible
